Home > Weather > Sarnia > Past weeks

Flag for Canada Past Weather in Sarnia, Ontario, Canada — Yesterday and Last 2 Weeks

Now
61 °F

Heavy rain. Fog.


Feels Like: 61 °F
Forecast: 56 / 69 °F
Wind: 8 mph from Northwest

Location: Sarnia Airport

Current Time: Jul 1, 2016 at 7:50:50 AM

Latest Report: Jul 1, 2016 at 7:03 AM


Visibility: 5 mi

Pressure: 29.90 "Hg

Humidity: 88%

Dew Point: 57 °F

Location of SarniaLocation

Past Weather in Sarnia — Graph

°F

Sarnia Temperature Yesterday

Maximum temperature yesterday: 81 °F (at 4:00 PM)
Minimum temperature yesterday: 54 °F (at 3:00 AM)
Average temperature yesterday: 68 °F

High & Low Weather Summary for the Past Weeks

 TemperatureHumidityPressure
High90 °F (Jun 20, 4:00 PM)100% (Jun 16, 11:03 AM)30.27 "Hg (Jun 16, 11:03 AM)
Low50 °F (Jun 29, 5:00 AM)26% (Jun 18, 7:00 PM)29.67 "Hg (Jun 16, 8:00 AM)
Average68 °F66%30.00 "Hg
* Reported Jun 16 6:00 AM — Jul 1 6:00 AM, Sarnia, Weather by CustomWeather, © 2016

Note: Actual official high and low records may vary slightly from our data, if they occured in-between our weather recording intervals... More about our weather records

Advertising

Sarnia Weather History for the Previous 24 Hours

Scroll right to see more
 ConditionsComfort  
Time TempWeatherWind HumidityBarometerVisibility
6:00 AM
Fri, Jul 1
64 °FOvercast.6 mph83%29.83 "Hg9 mi
5:00 AM64 °FOvercast.6 mph78%29.83 "Hg9 mi
4:45 AM64 °FMostly cloudy.7 mph78%29.84 "Hg9 mi
4:00 AM64 °FMostly cloudy.5 mph78%29.86 "Hg9 mi
3:02 AM64 °FLight rain. Overcast.6 mph73%29.87 "Hg9 mi
2:00 AM64 °FMostly cloudy.7 mph68%29.89 "Hg9 mi
1:00 AM63 °FPassing clouds.7 mph68%29.90 "Hg9 mi
12:00 AM64 °FClear.6 mph64%29.92 "Hg9 mi
11:00 PM
Thu, Jun 30
66 °FClear.6 mph60%29.92 "Hg9 mi
10:00 PM70 °FScattered clouds.6 mph50%29.92 "Hg9 mi
9:00 PM73 °FPassing clouds.5 mph41%29.92 "Hg9 mi
8:00 PM77 °FSunny.6 mph32%29.93 "Hg9 mi
7:00 PM79 °FSunny.14 mph30%29.93 "Hg9 mi
6:00 PM81 °FSunny.8 mph28%29.93 "Hg9 mi
5:00 PM81 °FSunny.10 mph26%29.94 "Hg9 mi
4:00 PM81 °FSunny.6 mph30%29.95 "Hg9 mi
3:00 PM79 °FPassing clouds.5 mph32%29.97 "Hg9 mi
2:00 PM79 °FSunny.6 mph34%29.99 "Hg9 mi
1:00 PM77 °FScattered clouds.6 mph39%30.01 "Hg9 mi
12:00 PM75 °FScattered clouds.7 mph44%30.03 "Hg9 mi
11:00 AM77 °FSunny.6 mph36%30.03 "Hg9 mi
10:00 AM73 °FSunny.3 mph53%30.03 "Hg9 mi
9:00 AM70 °FSunny.5 mph60%30.05 "Hg9 mi
8:00 AM63 °FSunny.3 mph68%30.05 "Hg9 mi
7:00 AM55 °FSunny.2 mph82%30.04 "Hg9 mi
Weather by CustomWeather, © 2016

See weather overviewHow to use our weather pages